TVF78HX LFPO-LFMN

Flight info

Callsign TVF78HX
Flight time 1h 5m
Altitude 35000
Route LATRA DCT LAMUT DCT UTUVA DCT LERGA DCT LIQID DCT LATAM DCT TUNUR DCT NISAR
Aircraft B738/M-SDE2E3FGHIRWXY/LB1

Departure

Time 2026-05-05 20:45
Airport Paris-Orly Airport (LFPO)

Arrival

Time 2026-05-05 21:51
Airport Nice-Côte d'Azur Airport (LFMN)
Time Latitude Longitude Altitude Speed Heading
2026-05-05 20:22 48.72562 2.36078 290 ft 0 kts 357°
2026-05-05 20:37 48.72557 2.36079 285 ft 3 kts 357°
2026-05-05 20:38 48.72539 2.36080 279 ft 3 kts 357°
2026-05-05 20:38 48.72521 2.36081 305 ft 3 kts 344°
2026-05-05 20:38 48.72507 2.36096 304 ft 3 kts 281°
2026-05-05 20:38 48.72506 2.36106 304 ft 0 kts 266°
2026-05-05 20:41 48.72506 2.36105 299 ft 1 kts 264°
2026-05-05 20:41 48.72497 2.36056 302 ft 5 kts 250°
2026-05-05 20:41 48.72485 2.36001 303 ft 7 kts 253°
2026-05-05 20:41 48.72475 2.35879 303 ft 13 kts 270°
2026-05-05 20:42 48.72471 2.35744 301 ft 13 kts 261°
2026-05-05 20:42 48.72439 2.35635 300 ft 10 kts 216°
2026-05-05 20:42 48.72372 2.35628 303 ft 10 kts 165°
2026-05-05 20:42 48.72305 2.35623 299 ft 10 kts 195°
2026-05-05 20:43 48.72240 2.35607 301 ft 9 kts 179°
2026-05-05 20:43 48.72176 2.35624 301 ft 9 kts 166°
2026-05-05 20:43 48.72105 2.35655 305 ft 12 kts 160°
2026-05-05 20:43 48.72041 2.35730 303 ft 13 kts 128°
2026-05-05 20:44 48.71989 2.35872 302 ft 18 kts 117°
2026-05-05 20:44 48.71980 2.36057 301 ft 18 kts 76°
2026-05-05 20:44 48.72085 2.36625 305 ft 107 kts 73°
2026-05-05 20:44 48.72352 2.38145 527 ft 178 kts 72°
2026-05-05 20:45 48.73068 2.42032 2992 ft 199 kts 70°
2026-05-05 20:45 48.73469 2.44159 3628 ft 222 kts 71°
2026-05-05 20:45 48.73905 2.46475 4241 ft 234 kts 72°
2026-05-05 20:46 48.74173 2.48996 4812 ft 250 kts 85°
2026-05-05 20:46 48.74227 2.51665 5600 ft 257 kts 85°
2026-05-05 20:46 48.74296 2.54374 6633 ft 258 kts 85°
2026-05-05 20:46 48.74112 2.57092 7614 ft 266 kts 108°
2026-05-05 20:47 48.73098 2.59457 8565 ft 274 kts 135°
2026-05-05 20:47 48.71477 2.60956 9647 ft 276 kts 161°
2026-05-05 20:47 48.69606 2.61350 10718 ft 271 kts 185°
2026-05-05 20:47 48.67749 2.60712 11466 ft 283 kts 197°
2026-05-05 20:48 48.65790 2.59737 11866 ft 305 kts 199°
2026-05-05 20:48 48.63769 2.58675 12530 ft 309 kts 199°
2026-05-05 20:48 48.61757 2.57615 12818 ft 302 kts 200°
2026-05-05 20:48 48.59776 2.56582 12816 ft 301 kts 200°
2026-05-05 20:49 48.57825 2.55575 12832 ft 304 kts 200°
2026-05-05 20:49 48.55812 2.54545 12832 ft 307 kts 199°
2026-05-05 20:49 48.53791 2.53518 12855 ft 306 kts 200°
2026-05-05 20:49 48.51758 2.52488 13372 ft 309 kts 199°
2026-05-05 20:50 48.49709 2.51454 14277 ft 312 kts 199°
2026-05-05 20:50 48.47640 2.50412 15143 ft 314 kts 199°
2026-05-05 20:50 48.45555 2.49363 16006 ft 318 kts 199°
2026-05-05 20:50 48.43453 2.48306 16916 ft 320 kts 199°
2026-05-05 20:51 48.41343 2.47247 17677 ft 326 kts 199°
2026-05-05 20:51 48.39177 2.46161 18447 ft 330 kts 199°
2026-05-05 20:51 48.36990 2.45065 19189 ft 333 kts 199°
2026-05-05 20:51 48.34775 2.43956 19903 ft 338 kts 199°
2026-05-05 20:52 48.32534 2.42836 20650 ft 341 kts 198°
2026-05-05 20:52 48.30242 2.41823 21273 ft 348 kts 189°
2026-05-05 20:52 48.27812 2.41670 21917 ft 352 kts 174°
2026-05-05 20:52 48.25407 2.42464 22626 ft 355 kts 161°
2026-05-05 20:53 48.23070 2.43711 23350 ft 358 kts 159°
2026-05-05 20:53 48.20718 2.45019 23916 ft 362 kts 159°
2026-05-05 20:53 48.18348 2.46329 24555 ft 364 kts 159°
2026-05-05 20:53 48.15958 2.47629 24814 ft 366 kts 159°
2026-05-05 20:54 48.13567 2.48909 24848 ft 365 kts 160°
2026-05-05 20:54 48.11147 2.50194 25040 ft 372 kts 160°
2026-05-05 20:54 48.08730 2.51473 25667 ft 372 kts 160°
2026-05-05 20:54 48.06255 2.52748 26375 ft 372 kts 160°
2026-05-05 20:55 48.03821 2.53956 26928 ft 375 kts 161°
2026-05-05 20:55 48.01331 2.55174 27446 ft 378 kts 161°
2026-05-05 20:55 47.98832 2.56392 28140 ft 377 kts 161°
2026-05-05 20:55 47.96321 2.57618 28684 ft 380 kts 161°
2026-05-05 20:56 47.93797 2.58852 29143 ft 384 kts 161°
2026-05-05 20:56 47.91239 2.60105 29606 ft 388 kts 161°
2026-05-05 20:56 47.88668 2.61366 30060 ft 391 kts 161°
2026-05-05 20:56 47.86062 2.62642 30465 ft 394 kts 161°
2026-05-05 20:57 47.83454 2.63919 30869 ft 396 kts 161°
2026-05-05 20:57 47.80828 2.65204 31255 ft 399 kts 161°
2026-05-05 20:57 47.78187 2.66494 31626 ft 401 kts 161°
2026-05-05 20:57 47.75559 2.67777 32007 ft 403 kts 162°
2026-05-05 20:58 47.72888 2.69080 32390 ft 405 kts 162°
2026-05-05 20:58 47.70168 2.70405 32742 ft 408 kts 162°
2026-05-05 20:58 47.67502 2.71702 33065 ft 410 kts 162°
2026-05-05 20:58 47.64775 2.73028 33394 ft 413 kts 162°
2026-05-05 20:59 47.62039 2.74356 33725 ft 415 kts 162°
2026-05-05 20:59 47.59284 2.75692 34009 ft 418 kts 162°
2026-05-05 20:59 47.56509 2.77037 34253 ft 420 kts 162°
2026-05-05 20:59 47.53724 2.78385 34479 ft 423 kts 162°
2026-05-05 21:00 47.50913 2.79744 34713 ft 426 kts 163°
2026-05-05 21:00 47.48087 2.81109 34876 ft 430 kts 163°
2026-05-05 21:00 47.42308 2.83893 34883 ft 442 kts 163°
2026-05-05 21:01 47.36375 2.86747 34886 ft 454 kts 163°
2026-05-05 21:01 47.30321 2.89652 34882 ft 459 kts 163°
2026-05-05 21:02 47.24241 2.92564 34878 ft 459 kts 163°
2026-05-05 21:02 47.18161 2.95468 34884 ft 459 kts 163°
2026-05-05 21:03 47.12092 2.98360 34888 ft 458 kts 163°
2026-05-05 21:03 47.06030 3.01011 34890 ft 457 kts 166°
2026-05-05 21:04 46.99903 3.03465 34897 ft 456 kts 166°
2026-05-05 21:04 46.94813 3.05507 34896 ft 455 kts 166°
2026-05-05 21:05 46.88707 3.07987 34899 ft 455 kts 166°
2026-05-05 21:05 46.82617 3.10476 34898 ft 454 kts 166°
2026-05-05 21:06 46.76532 3.12960 34899 ft 454 kts 166°
2026-05-05 21:06 46.70451 3.15436 34898 ft 453 kts 166°
2026-05-05 21:07 46.64373 3.17903 34903 ft 453 kts 166°
2026-05-05 21:07 46.58295 3.20365 34905 ft 453 kts 166°
2026-05-05 21:08 46.52257 3.22805 34884 ft 453 kts 166°
2026-05-05 21:08 46.46191 3.25250 34896 ft 452 kts 166°
2026-05-05 21:09 46.40131 3.27688 34905 ft 452 kts 166°
2026-05-05 21:09 46.34063 3.30123 34903 ft 452 kts 166°
2026-05-05 21:10 46.27995 3.32553 34900 ft 452 kts 166°
2026-05-05 21:10 46.21925 3.34977 34906 ft 452 kts 166°
2026-05-05 21:11 46.15853 3.37397 34903 ft 453 kts 166°
2026-05-05 21:11 46.09817 3.39798 34904 ft 453 kts 167°
2026-05-05 21:12 46.03750 3.42205 34900 ft 452 kts 167°
2026-05-05 21:12 45.97686 3.44605 34899 ft 452 kts 167°
2026-05-05 21:13 45.91620 3.47002 34903 ft 452 kts 167°
2026-05-05 21:13 45.85553 3.49398 34903 ft 452 kts 167°
2026-05-05 21:14 45.79522 3.51959 34906 ft 452 kts 166°
2026-05-05 21:14 45.73508 3.54589 34906 ft 452 kts 166°
2026-05-05 21:15 45.67494 3.57195 34909 ft 451 kts 166°
2026-05-05 21:15 45.61514 3.59762 34900 ft 451 kts 166°
2026-05-05 21:16 45.55465 3.62349 34906 ft 451 kts 166°
2026-05-05 21:16 45.49777 3.66047 34911 ft 459 kts 149°
2026-05-05 21:17 45.44957 3.72110 34919 ft 465 kts 138°
2026-05-05 21:17 45.40452 3.78754 34915 ft 466 kts 138°
2026-05-05 21:18 45.35936 3.85382 34911 ft 467 kts 138°
2026-05-05 21:18 45.31387 3.91962 34901 ft 467 kts 139°
2026-05-05 21:19 45.26848 3.98475 34910 ft 467 kts 139°
2026-05-05 21:19 45.22267 4.05025 34927 ft 467 kts 139°
2026-05-05 21:20 45.17684 4.11565 34922 ft 468 kts 139°
2026-05-05 21:20 45.13095 4.18101 34925 ft 468 kts 139°
2026-05-05 21:21 45.08499 4.24632 34910 ft 468 kts 140°
2026-05-05 21:21 45.03895 4.31157 34927 ft 469 kts 140°
2026-05-05 21:22 44.99280 4.37683 34933 ft 469 kts 140°
2026-05-05 21:22 44.94692 4.44155 34931 ft 470 kts 140°
2026-05-05 21:23 44.90060 4.50674 34926 ft 470 kts 140°
2026-05-05 21:23 44.85427 4.57178 34926 ft 470 kts 140°
2026-05-05 21:24 44.80794 4.63668 34929 ft 469 kts 141°
2026-05-05 21:24 44.76167 4.70133 34944 ft 469 kts 141°
2026-05-05 21:25 44.71536 4.76587 34928 ft 468 kts 141°
2026-05-05 21:25 44.66936 4.82985 34940 ft 468 kts 141°
2026-05-05 21:26 44.62276 4.89449 34930 ft 468 kts 141°
2026-05-05 21:26 44.57661 4.95836 34647 ft 469 kts 141°
2026-05-05 21:27 44.55345 4.99040 34462 ft 465 kts 142°
2026-05-05 21:27 44.53042 5.02220 34285 ft 464 kts 142°
2026-05-05 21:27 44.50737 5.05391 34090 ft 464 kts 143°
2026-05-05 21:27 44.48233 5.08115 33964 ft 448 kts 160°
2026-05-05 21:28 44.42609 5.11591 33943 ft 443 kts 162°
2026-05-05 21:28 44.37015 5.15127 33944 ft 444 kts 162°
2026-05-05 21:29 44.31405 5.18727 33943 ft 443 kts 162°
2026-05-05 21:29 44.25780 5.22344 33935 ft 441 kts 162°
2026-05-05 21:30 44.20248 5.25886 33932 ft 440 kts 162°
2026-05-05 21:30 44.14700 5.29426 33953 ft 439 kts 162°
2026-05-05 21:31 44.09132 5.32970 33682 ft 441 kts 163°
2026-05-05 21:31 44.06360 5.34735 33188 ft 433 kts 164°
2026-05-05 21:31 44.03680 5.36450 33119 ft 415 kts 165°
2026-05-05 21:32 44.01101 5.38096 33022 ft 400 kts 165°
2026-05-05 21:32 43.98635 5.39772 32930 ft 394 kts 158°
2026-05-05 21:32 43.96506 5.42205 32845 ft 402 kts 143°
2026-05-05 21:32 43.94719 5.45236 32135 ft 411 kts 138°
2026-05-05 21:33 43.92966 5.48475 30971 ft 428 kts 136°
2026-05-05 21:33 43.91206 5.51834 30256 ft 430 kts 135°
2026-05-05 21:33 43.89468 5.55173 29781 ft 424 kts 135°
2026-05-05 21:33 43.87748 5.58451 29182 ft 418 kts 136°
2026-05-05 21:34 43.86032 5.61677 28539 ft 414 kts 136°
2026-05-05 21:34 43.84320 5.64860 27902 ft 411 kts 136°
2026-05-05 21:34 43.82612 5.68014 27301 ft 407 kts 135°
2026-05-05 21:34 43.80915 5.71138 26664 ft 404 kts 135°
2026-05-05 21:35 43.79280 5.74302 26049 ft 405 kts 131°
2026-05-05 21:35 43.77732 5.77568 25493 ft 405 kts 130°
2026-05-05 21:35 43.76227 5.80846 24952 ft 403 kts 129°
2026-05-05 21:35 43.74733 5.84115 24427 ft 400 kts 129°
2026-05-05 21:36 43.73245 5.87351 23898 ft 398 kts 128°
2026-05-05 21:36 43.71760 5.90557 23344 ft 395 kts 128°
2026-05-05 21:36 43.70273 5.93742 22749 ft 392 kts 128°
2026-05-05 21:36 43.68817 5.96849 22234 ft 388 kts 129°
2026-05-05 21:37 43.67338 5.99995 21686 ft 383 kts 129°
2026-05-05 21:37 43.65893 6.03063 21210 ft 378 kts 129°
2026-05-05 21:37 43.64483 6.06051 20718 ft 375 kts 129°
2026-05-05 21:37 43.63068 6.09046 20214 ft 371 kts 130°
2026-05-05 21:38 43.61663 6.12015 19735 ft 367 kts 130°
2026-05-05 21:38 43.60270 6.14956 19267 ft 364 kts 129°
2026-05-05 21:38 43.58891 6.17863 18797 ft 361 kts 129°
2026-05-05 21:38 43.57721 6.20938 18356 ft 366 kts 117°
2026-05-05 21:39 43.57006 6.24316 17869 ft 370 kts 107°
2026-05-05 21:39 43.56584 6.27820 17327 ft 369 kts 104°
2026-05-05 21:39 43.56203 6.31307 16826 ft 367 kts 104°
2026-05-05 21:39 43.55831 6.34766 16337 ft 364 kts 104°
2026-05-05 21:40 43.55456 6.38209 15856 ft 361 kts 104°
2026-05-05 21:40 43.55082 6.41573 15392 ft 359 kts 104°
2026-05-05 21:40 43.54699 6.44956 14918 ft 356 kts 104°
2026-05-05 21:40 43.54315 6.48318 14437 ft 354 kts 104°
2026-05-05 21:41 43.53929 6.51670 13968 ft 352 kts 104°
2026-05-05 21:41 43.53544 6.54989 13508 ft 349 kts 104°
2026-05-05 21:41 43.53162 6.58276 13042 ft 346 kts 103°
2026-05-05 21:41 43.52781 6.61533 12605 ft 343 kts 103°
2026-05-05 21:42 43.52406 6.64741 12377 ft 333 kts 103°
2026-05-05 21:42 43.52042 6.67850 12148 ft 327 kts 103°
2026-05-05 21:42 43.51598 6.70878 12056 ft 314 kts 108°
2026-05-05 21:42 43.51072 6.73740 11564 ft 306 kts 109°
2026-05-05 21:43 43.50524 6.76564 10937 ft 303 kts 110°
2026-05-05 21:43 43.49610 6.79124 10322 ft 295 kts 128°
2026-05-05 21:43 43.48348 6.81332 9673 ft 293 kts 132°
2026-05-05 21:43 43.47031 6.83477 8942 ft 293 kts 133°
2026-05-05 21:44 43.45699 6.85611 8207 ft 293 kts 133°
2026-05-05 21:44 43.44367 6.87729 7514 ft 293 kts 133°
2026-05-05 21:44 43.43041 6.89843 6829 ft 291 kts 129°
2026-05-05 21:44 43.42146 6.92330 6127 ft 293 kts 105°
2026-05-05 21:45 43.42106 6.95090 5572 ft 292 kts 79°
2026-05-05 21:45 43.42849 6.97591 5307 ft 279 kts 59°
2026-05-05 21:45 43.44115 6.99544 4976 ft 271 kts 37°
2026-05-05 21:45 43.45792 7.00690 4426 ft 271 kts 21°
2026-05-05 21:46 43.47497 7.01697 4050 ft 263 kts 28°
2026-05-05 21:46 43.49048 7.02945 3710 ft 254 kts 34°
2026-05-05 21:46 43.50640 7.03888 3290 ft 251 kts
2026-05-05 21:46 43.52369 7.03959 2972 ft 242 kts 11°
2026-05-05 21:47 43.53888 7.04709 2804 ft 227 kts 36°
2026-05-05 21:47 43.54939 7.06230 2588 ft 214 kts 52°
2026-05-05 21:47 43.55935 7.07684 2302 ft 203 kts 44°
2026-05-05 21:47 43.56912 7.08999 2032 ft 188 kts 46°
2026-05-05 21:48 43.57796 7.10217 1794 ft 171 kts 46°
2026-05-05 21:48 43.58583 7.11306 1605 ft 151 kts 46°
2026-05-05 21:48 43.59299 7.12297 1402 ft 145 kts 46°
2026-05-05 21:48 43.60015 7.13286 1202 ft 144 kts 46°
2026-05-05 21:49 43.60722 7.14260 995 ft 144 kts 46°
2026-05-05 21:49 43.61504 7.15331 901 ft 159 kts 46°
2026-05-05 21:49 43.62269 7.16405 638 ft 157 kts 47°
2026-05-05 21:49 43.63023 7.17451 477 ft 150 kts 44°
2026-05-05 21:50 43.63757 7.18446 314 ft 146 kts 45°
2026-05-05 21:50 43.64470 7.19428 171 ft 143 kts 44°
2026-05-05 21:50 43.65160 7.20370 59 ft 136 kts 45°
2026-05-05 21:50 43.65772 7.21212 24 ft 105 kts 45°
2026-05-05 21:51 43.66135 7.21719 21 ft 43 kts 46°
2026-05-05 21:51 43.66265 7.21891 22 ft 23 kts 39°
2026-05-05 21:51 43.66398 7.22001 23 ft 22 kts 23°
2026-05-05 21:51 43.66533 7.22041 21 ft 18 kts 338°
2026-05-05 21:52 43.66479 7.21870 21 ft 19 kts 225°
2026-05-05 21:52 43.66368 7.21718 21 ft 24 kts 224°
2026-05-05 21:52 43.66254 7.21560 21 ft 23 kts 225°
2026-05-05 21:53 43.66143 7.21408 21 ft 22 kts 224°
2026-05-05 21:53 43.66035 7.21263 21 ft 21 kts 224°
2026-05-05 21:53 43.65961 7.21124 21 ft 14 kts 272°
2026-05-05 21:53 43.66002 7.21061 21 ft 14 kts 331°
2026-05-05 21:54 43.65998 7.20953 21 ft 13 kts 228°
2026-05-05 21:54 43.65934 7.20865 21 ft 13 kts 223°
2026-05-05 21:54 43.65907 7.20759 21 ft 13 kts 286°
2026-05-05 21:54 43.65923 7.20699 21 ft 0 kts 291°